TimeCST,TemperatureF,Dew PointF,Humidity,Sea Level PressureIn,VisibilityMPH,Wind Direction,Wind SpeedMPH,Gust SpeedMPH,PrecipitationIn,Events,Conditions,WindDirDegrees,DateUTC
12:18 AM,24.3,21.7,90,30.18,5.0,South,10.4,-,N/A,,Clear,180,2013-03-08 06:18:00
12:38 AM,24.6,21.7,89,30.19,5.0,South,10.4,-,N/A,,Clear,190,2013-03-08 06:38:00
12:58 AM,24.8,21.9,89,30.19,5.0,South,5.8,-,N/A,,Clear,180,2013-03-08 06:58:00
1:18 AM,25.2,22.1,88,30.20,5.0,South,4.6,-,N/A,,Clear,170,2013-03-08 07:18:00
1:38 AM,24.8,21.9,89,30.20,5.0,South,5.8,-,N/A,,Clear,190,2013-03-08 07:38:00
1:58 AM,24.8,21.9,89,30.19,5.0,South,10.4,-,N/A,,Clear,190,2013-03-08 07:58:00
2:17 AM,25.3,21.9,87,30.18,7.0,SSW,13.8,18.4,N/A,,Clear,200,2013-03-08 08:17:00
2:38 AM,25.5,22.1,87,30.18,7.0,SSW,16.1,21.9,N/A,,Clear,200,2013-03-08 08:38:00
2:58 AM,25.5,22.1,87,30.17,7.0,SSW,17.3,-,N/A,,Clear,200,2013-03-08 08:58:00
3:18 AM,25.5,21.9,86,30.17,7.0,SSW,15.0,-,N/A,,Clear,200,2013-03-08 09:18:00
3:37 AM,25.3,21.7,86,30.17,7.0,SSW,16.1,-,N/A,,Clear,200,2013-03-08 09:37:00
3:57 AM,25.0,21.6,87,30.16,7.0,SSW,15.0,-,N/A,,Clear,200,2013-03-08 09:57:00
4:18 AM,24.8,21.4,87,30.16,7.0,SSW,16.1,-,N/A,,Clear,200,2013-03-08 10:18:00
4:37 AM,24.8,21.4,87,30.17,7.0,SSW,15.0,-,N/A,,Clear,200,2013-03-08 10:37:00
4:58 AM,24.6,21.2,87,30.19,7.0,Calm,Calm,-,N/A,,Clear,0,2013-03-08 10:58:00
5:18 AM,24.1,21.0,88,30.20,7.0,Calm,Calm,-,N/A,,Clear,0,2013-03-08 11:18:00
5:37 AM,23.7,20.5,87,30.21,7.0,Calm,Calm,-,N/A,,Clear,0,2013-03-08 11:37:00
5:57 AM,22.8,20.1,89,30.21,5.0,Calm,Calm,-,N/A,,Clear,0,2013-03-08 11:57:00
6:18 AM,21.2,18.7,90,30.21,5.0,Calm,Calm,-,N/A,,Clear,0,2013-03-08 12:18:00
6:37 AM,18.9,16.7,91,30.21,4.0,Calm,Calm,-,N/A,,Clear,0,2013-03-08 12:37:00
6:58 AM,19.6,18.0,93,30.21,2.5,Calm,Calm,-,N/A,,Clear,0,2013-03-08 12:58:00
7:17 AM,18.5,16.9,93,30.21,2.0,Calm,Calm,-,N/A,,Clear,0,2013-03-08 13:17:00
7:37 AM,17.6,15.8,93,30.21,2.5,Calm,Calm,-,N/A,,Clear,0,2013-03-08 13:37:00
7:57 AM,18.5,16.7,93,30.21,2.5,Calm,Calm,-,N/A,,Clear,0,2013-03-08 13:57:00
8:18 AM,20.7,18.5,91,30.21,2.5,Calm,Calm,-,N/A,,Clear,0,2013-03-08 14:18:00
8:58 AM,23.5,20.1,87,30.21,3.0,Calm,Calm,-,N/A,,Clear,0,2013-03-08 14:58:00
9:18 AM,24.8,21.0,86,30.21,3.0,Calm,Calm,-,N/A,,Clear,0,2013-03-08 15:18:00
9:37 AM,25.5,21.2,84,30.22,4.0,Calm,Calm,-,N/A,,Clear,0,2013-03-08 15:37:00
9:57 AM,26.4,21.9,83,30.21,4.0,Calm,Calm,-,N/A,,Clear,0,2013-03-08 15:57:00
10:17 AM,27.1,22.8,84,30.20,4.0,Calm,Calm,-,N/A,,Clear,0,2013-03-08 16:17:00
10:37 AM,28.4,23.7,83,30.20,4.0,Calm,Calm,-,N/A,,Haze,0,2013-03-08 16:37:00
10:57 AM,29.5,24.4,81,30.19,5.0,Calm,Calm,-,N/A,,Haze,0,2013-03-08 16:57:00
11:17 AM,30.9,25.3,80,30.20,5.0,Calm,Calm,-,N/A,,Haze,0,2013-03-08 17:17:00
11:38 AM,32.0,25.7,78,30.18,5.0,Calm,Calm,-,N/A,,Haze,0,2013-03-08 17:38:00
11:57 AM,32.4,26.4,79,30.18,5.0,Calm,Calm,-,N/A,,Haze,0,2013-03-08 17:57:00
12:17 PM,33.1,27.3,79,30.17,7.0,Calm,Calm,-,N/A,,Clear,0,2013-03-08 18:17:00
12:38 PM,33.4,27.5,79,30.16,5.0,Calm,Calm,-,N/A,,Haze,0,2013-03-08 18:38:00
12:58 PM,34.5,27.5,76,30.15,7.0,Calm,Calm,-,N/A,,Clear,0,2013-03-08 18:58:00
1:17 PM,35.1,28.2,76,30.14,7.0,Calm,Calm,-,N/A,,Clear,0,2013-03-08 19:17:00
1:37 PM,35.1,28.4,77,30.15,5.0,Calm,Calm,-,N/A,,Haze,0,2013-03-08 19:37:00
1:58 PM,35.4,28.2,75,30.14,7.0,Calm,Calm,-,N/A,,Clear,0,2013-03-08 19:58:00
2:17 PM,34.7,28.8,79,30.14,5.0,Calm,Calm,-,N/A,,Haze,0,2013-03-08 20:17:00
2:37 PM,34.2,28.8,81,30.13,5.0,Calm,Calm,-,N/A,,Haze,0,2013-03-08 20:37:00
2:57 PM,34.2,28.9,81,30.13,5.0,Calm,Calm,-,N/A,,Haze,0,2013-03-08 20:57:00
3:17 PM,34.2,29.3,82,30.12,5.0,Calm,Calm,-,N/A,,Haze,0,2013-03-08 21:17:00
3:37 PM,33.8,29.5,84,30.11,4.0,Calm,Calm,-,N/A,,Haze,0,2013-03-08 21:37:00
3:57 PM,33.6,29.3,84,30.11,5.0,East,11.5,-,N/A,,Haze,80,2013-03-08 21:57:00
4:18 PM,33.1,29.1,85,30.11,4.0,East,11.5,-,N/A,,Scattered Clouds,90,2013-03-08 22:18:00
4:37 PM,32.5,29.1,87,30.10,4.0,East,9.2,-,N/A,,Scattered Clouds,90,2013-03-08 22:37:00
4:58 PM,32.2,28.9,88,30.10,4.0,East,10.4,-,N/A,,Scattered Clouds,100,2013-03-08 22:58:00
5:18 PM,32.0,28.9,88,30.09,4.0,East,10.4,-,N/A,,Scattered Clouds,100,2013-03-08 23:18:00
5:37 PM,31.6,28.6,88,30.08,4.0,East,10.4,-,N/A,,Scattered Clouds,90,2013-03-08 23:37:00
5:58 PM,31.1,28.6,90,30.07,3.0,East,12.7,-,N/A,,Mist,100,2013-03-08 23:58:00
6:18 PM,31.3,29.1,92,30.07,3.0,East,12.7,-,N/A,,Overcast,100,2013-03-09 00:18:00
6:38 PM,31.3,29.1,92,30.06,4.0,East,10.4,-,N/A,,Overcast,100,2013-03-09 00:38:00
6:57 PM,31.3,29.1,92,30.05,4.0,ESE,11.5,-,N/A,,Mostly Cloudy,110,2013-03-09 00:57:00
7:18 PM,31.6,29.3,91,30.05,4.0,ESE,11.5,-,N/A,,Overcast,120,2013-03-09 01:18:00
7:38 PM,31.8,29.5,91,30.04,4.0,SE,10.4,-,N/A,,Overcast,130,2013-03-09 01:38:00
7:57 PM,32.0,29.8,92,30.04,4.0,SE,10.4,-,N/A,,Overcast,140,2013-03-09 01:57:00
8:18 PM,32.2,30.2,92,30.04,4.0,SE,9.2,-,N/A,,Overcast,140,2013-03-09 02:18:00
8:38 PM,32.4,30.2,92,30.03,4.0,SE,10.4,-,N/A,,Overcast,140,2013-03-09 02:38:00
8:58 PM,32.4,30.2,92,30.02,4.0,SSE,8.1,-,N/A,,Overcast,150,2013-03-09 02:58:00
9:18 PM,32.5,30.2,91,30.03,4.0,SSE,5.8,-,N/A,,Overcast,160,2013-03-09 03:18:00
9:38 PM,32.5,30.7,93,30.01,3.0,SE,9.2,-,0.01,Rain,Rain,140,2013-03-09 03:38:00
9:58 PM,32.9,30.7,92,30.00,5.0,SE,12.7,-,0.01,,Overcast,140,2013-03-09 03:58:00
10:18 PM,33.1,30.7,91,29.99,5.0,SE,13.8,-,N/A,,Overcast,140,2013-03-09 04:18:00
10:37 PM,33.1,30.6,90,29.99,5.0,SSE,11.5,-,0.01,Rain,Light Rain,150,2013-03-09 04:37:00
10:58 PM,33.1,30.9,92,29.99,4.0,SSE,9.2,-,0.02,,Overcast,160,2013-03-09 04:58:00
11:17 PM,33.1,30.9,92,29.98,3.0,South,8.1,-,0.02,Rain,Rain,170,2013-03-09 05:17:00
11:38 PM,32.9,31.3,94,29.98,2.0,Calm,Calm,-,0.13,Snow,Light Snow,0,2013-03-09 05:38:00
11:58 PM,32.9,31.6,95,29.96,2.0,Calm,Calm,-,0.23,Snow,Light Snow,0,2013-03-09 05:58:00